RH
100 78 72 50 66 100 86 63 56 100 64 59 90 84 97 92 94 86 77 80 80 86 90 71 68 68 70 76 84 70 72 66 62
100 63 68 76 100 81 57 43 52 88 66 50 45 48 57 78 90 100 96 82 96 88 76 75 58 56 60 66 62 68 74 68 77
99 89 79 54 58 75 55 78 65 50 61 52 55 38 40 40 44 62 82 88 76 94 70 76 71 64 64 67 70 59 57 52 55
68 69 70 74 69 70 99 98 87 97 90 96 48 52 48 47 37 33 45 60 92 100 90 76 75 74 88 64 64 67 60 56 59
16 15 14 16 16 28 55 56 87 85 76 86 100 96 100 87 80 73 72 59 51 50 52 83 99 72 61 70 77 65 62 50 62
15 14 14 15 14 14 15 14 20 54 70 58 48 71 100 100 100 99 100 91 87 82 67 51 52 60 58 52 45 48 48 57 57
18 16 14 13 14 14 15 16 16 15 14 13 13 14 37 84 97 95 78 82 100 94 100 90 89 91 72 62 57 49 47 54 49
18 18 16 14 14 14 14 15 16 18 17 17 15 14 13 14 15 27 57 78 62 71 78 80 73 84 80 74 68 71 54 63 57
20 19 19 17 15 15 15 17 17 17 18 18 18 18 18 16 16 15 16 17 17 19 26 36 41 44 38 33 30 34 28 27 28
24 22 21 19 18 17 16 17 19 20 19 19 18 19 19 19 20 20 20 21 21 19 21 22 22 22 21 20 20 19 18 18 17
27 27 25 23 21 20 19 20 21 21 22 24 23 22 20 20 21 21 22 24 24 24 25 25 24 23 24 24 22 21 20 19 17
32 31 28 27 26 23 21 20 20 22 25 26 28 29 28 27 24 25 27 26 27 27 27 27 28 28 25 24 22 20 19 18 17
36 35 33 32 32 30 28 26 24 21 21 26 27 30 33 35 38 36 35 33 32 32 34 31 28 26 24 22 21 19 19 18 16
40 39 36 33 33 35 36 33 29 26 26 26 27 30 31 30 30 32 32 32 32 30 28 27 26 24 24 22 20 19 18 16 17
42 42 41 40 37 37 38 37 35 30 28 27 26 26 27 31 33 31 30 29 29 29 31 30 29 28 28 24 23 22 18 16 14
47 44 43 41 40 43 42 36 35 34 31 32 31 31 31 30 31 36 39 37 34 33 32 29 28 30 29 28 28 27 22 18 17
51 49 47 46 45 44 40 36 36 35 35 33 32 33 32 32 33 35 37 44 51 52 48 41 40 39 34 35 32 30 26 21 22
49 50 50 50 47 43 38 37 38 38 37 37 36 36 38 36 36 36 38 38 48 59 66 61 53 49 49 45 39 38 34 31 27
55 55 49 44 41 38 38 40 39 40 40 40 39 38 42 44 42 41 42 43 43 49 60 71 71 63 61 56 49 44 42 36 35
56 52 47 44 42 40 42 41 40 40 40 40 42 44 44 46 48 48 47 50 52 53 56 63 72 76 79 74 69 56 49 46 43
Wind_Speed
44 45 48 44 39 38 39 43 41 44 48 47 45 45 42 42 42 45 45 47 50 49 51 52 51 50 52 45 41 44 45 43 44
46 43 46 42 40 45 43 43 43 44 48 48 49 49 50 47 43 43 45 47 49 52 54 55 54 52 53 53 53 51 48 46 45
45 46 48 47 48 47 47 48 46 49 49 50 50 51 52 56 54 53 51 52 51 53 55 55 54 55 54 53 55 57 58 57 54
44 47 52 53 54 51 56 61 54 55 57 56 53 54 54 54 54 60 61 59 56 56 57 57 59 57 58 58 58 59 60 61 59
15 20 25 33 36 44 56 63 67 62 62 59 61 59 63 60 57 58 59 60 63 65 62 63 65 64 62 61 59 60 63 63 63
7 10 17 22 26 31 34 38 43 55 64 66 69 71 75 67 71 70 67 65 64 65 65 64 66 69 69 70 70 70 68 69 68
10 12 12 14 18 20 29 31 34 35 37 40 44 49 62 75 73 75 77 74 73 72 70 72 72 72 72 70 70 69 69 72 73
12 13 14 14 15 16 18 19 28 34 36 37 38 37 40 45 51 59 69 76 71 75 76 77 76 78 75 78 75 75 75 81 82
15 15 14 15 15 15 16 17 21 23 28 30 32 34 36 38 39 37 40 46 50 53 58 63 66 67 67 65 64 66 69 67 71
19 20 19 18 17 16 15 17 20 22 25 27 29 31 33 35 37 39 38 38 37 40 42 44 44 45 47 48 49 49 52 57 60
22 21 21 21 21 21 22 21 22 22 25 28 30 32 34 36 39 40 41 41 42 43 44 45 47 48 49 50 52 54 54 54 56
26 24 24 24 23 23 24 24 26 27 28 30 31 33 35 37 39 42 44 45 45 46 48 50 52 53 55 56 57 58 59 61 61
30 29 28 27 27 27 27 28 28 29 31 33 35 36 38 39 41 41 43 46 47 49 51 53 55 55 56 58 57 60 63 66 67
35 33 32 32 31 31 30 31 32 32 33 33 36 39 42 44 46 47 48 49 50 51 53 53 56 56 54 55 56 60 64 69 67
39 38 37 37 36 36 36 37 37 37 37 38 39 40 43 48 52 55 56 58 59 60 59 58 59 61 60 60 57 58 62 62 65
43 41 41 42 42 41 42 43 43 42 42 42 44 46 46 48 53 57 60 63 66 67 67 68 69 67 66 64 60 58 60 58 59
46 46 46 47 47 47 48 49 50 50 48 49 49 49 50 52 54 58 62 65 67 68 70 70 70 70 69 67 63 60 59 56 56
51 51 52 52 52 53 55 56 56 56 55 55 55 54 54 55 57 58 61 65 68 70 71 72 72 72 71 69 66 64 62 57 56
57 57 58 58 58 59 60 61 62 62 62 61 61 59 59 59 60 61 62 64 66 69 72 73 73 72 71 70 69 66 63 61 59
64 64 64 65 65 66 67 67 68 69 69 67 66 66 66 66 65 64 65 64 65 67 70 72 73 72 71 70 69 68 66 64 63
Wind_Direction
225 217 226 232 218 231 233 232 229 235 236 236 238 242 242 244 248 249 253 252 253 254 256 257 259 258 261 259 264 262 257 248 248
230 234 228 225 231 234 237 238 240 237 245 244 240 244 244 243 248 251 254 252 252 256 257 258 259 260 259 262 261 260 259 254 248
238 238 230 236 234 241 241 239 243 244 244 248 248 250 251 250 247 248 252 254 255 251 257 259 260 259 259 260 262 263 264 262 260
242 247 249 249 245 248 248 247 242 243 250 251 254 255 255 252 250 251 250 250 251 253 256 257 259 259 262 261 262 263 265 265 264
232 243 245 245 249 252 250 252 255 247 247 252 252 252 249 248 247 252 252 258 252 255 253 254 257 259 260 261 261 265 268 268 266
282 249 245 249 252 253 253 252 251 250 253 255 254 253 249 249 250 248 251 252 254 256 257 260 260 259 262 264 265 265 266 267 267
325 309 282 260 252 252 252 254 257 258 258 259 256 256 252 247 248 253 253 254 256 255 258 259 261 263 265 263 265 267 264 269 268
328 324 307 285 275 274 267 263 255 254 258 262 262 262 259 255 256 256 256 254 256 258 260 261 263 264 264 266 267 267 265 268 267
316 316 322 311 295 286 283 281 278 272 257 256 258 263 262 261 263 261 261 260 260 262 262 263 263 265 266 266 267 267 266 265 264
311 313 314 316 316 306 293 288 290 287 282 275 269 262 263 265 263 262 261 265 266 260 263 265 263 262 261 262 263 266 265 262 261
299 304 306 309 311 315 312 307 298 291 288 283 277 271 269 266 266 265 265 265 267 267 267 268 269 270 271 272 273 273 273 269 264
290 293 296 298 300 303 302 302 300 296 291 289 283 278 274 270 268 266 265 267 267 268 269 271 272 274 276 276 275 276 275 274 273
282 285 289 290 293 296 297 299 297 291 286 285 286 283 278 272 268 266 263 266 266 268 269 269 271 272 274 275 277 278 275 275 274
279 281 284 285 286 289 292 294 293 289 282 279 278 276 275 274 273 271 269 267 265 264 264 266 268 272 274 276 278 278 276 275 272
277 278 281 282 283 285 289 290 290 287 282 278 279 278 274 271 270 269 269 269 269 270 272 272 273 274 277 278 281 284 280 277 273
275 276 279 281 282 283 285 287 288 287 284 280 280 277 274 271 269 268 268 268 268 271 272 272 273 276 279 281 285 289 288 285 281
273 275 276 278 280 283 285 286 287 287 285 282 280 280 277 274 273 271 270 270 271 272 272 274 276 277 279 281 284 288 290 288 284
271 273 275 278 281 283 286 287 287 287 285 283 282 281 280 278 277 276 271 270 271 272 274 274 275 277 279 280 285 288 292 294 291
270 272 275 277 280 283 285 285 286 286 285 284 282 282 281 278 278 277 276 273 271 271 272 273 275 277 279 281 284 286 291 294 293
272 273 275 278 280 281 283 284 284 284 284 284 282 281 281 279 278 278 276 275 274 273 272 272 273 276 278 281 284 286 289 293 293